EA2CW-13 Weather Reports


time (UTC)temp
C
wind
direction
speed
KPH
gust
KPH
rain 1hr
cm
rain 24hr
cm
rain mn
cm
humidity
%
barometer
mb
20260503185120 16 0.0 0.0 0.00 0.00 0.00 10 1048.5
20260503183544 16 0.0 0.0 0.00 0.00 0.00 10 1048.4
20260503182008 16 0.0 0.0 0.00 0.00 0.00 10 1048.4
20260503180432 16 0.0 0.0 0.00 0.00 0.00 10 1048.0
20260503174856 16 0.0 0.0 0.00 0.00 0.00 10 1047.9
20260503173320 16 0.0 0.0 0.00 0.00 0.00 10 1048.0
20260503171744 16 0.0 0.0 0.00 0.00 0.00 10 1047.8
20260503170208 16 0.0 0.0 0.00 0.00 0.00 10 1048.2
20260503130809 22 0.0 0.0 0.00 0.00 0.00 70 1048.7
20260503110321 19 0.0 0.0 0.00 0.00 0.00 69 1049.6
20260503081145 21 0.0 0.0 0.00 0.00 0.00 68 1049.4
20260503072457 19 0.0 0.0 0.00 0.00 0.00 83 1049.6
20260503070921 18 0.0 0.0 0.00 0.00 0.00 86 1049.8
20260503055122 16 0.0 0.0 0.00 0.00 0.00 95 1049.9
20260503053546 15 0.0 0.0 0.00 0.00 0.00 96 1049.9
20260503052010 15 0.0 0.0 0.00 0.00 0.00 96 1049.8
20260503050434 15 0.0 0.0 0.00 0.00 0.00 95 1049.7
20260503044858 15 0.0 0.0 0.00 0.00 0.00 95 1049.7
20260503043322 15 0.0 0.0 0.00 0.00 0.00 95 1049.6
20260503041746 15 0.0 0.0 0.00 0.00 0.00 95 1049.5
20260503040210 15 0.0 0.0 0.00 0.00 0.00 95 1049.6
20260503034634 15 0.0 0.0 0.00 0.00 0.00 94 1049.6
20260503033058 15 0.0 0.0 0.00 0.00 0.00 94 1049.7
20260503031522 15 0.0 0.0 0.00 0.00 0.00 94 1049.8
20260503025946 15 0.0 0.0 0.00 0.00 0.00 93 1049.9
20260503024410 15 0.0 0.0 0.00 0.00 0.00 93 1050.0
20260503022834 15 0.0 0.0 0.00 0.00 0.00 93 1050.2
20260503021258 15 0.0 0.0 0.00 0.00 0.00 92 1050.1
20260503015722 16 0.0 0.0 0.00 0.00 0.00 92 1050.2
20260503014146 16 0.0 0.0 0.00 0.00 0.00 91 1050.3
20260503012610 16 0.0 0.0 0.00 0.00 0.00 90 1050.4
20260503011034 17 0.0 0.0 0.00 0.00 0.00 89 1050.6
20260503005458 16 0.0 0.0 0.00 0.00 0.00 90 1050.7
20260503003922 17 0.0 0.0 0.00 0.00 0.00 89 1050.8
20260503002346 16 0.0 0.0 0.00 0.00 0.00 90 1050.8
20260503000810 16 0.0 0.0 0.00 0.00 0.00 89 1050.6
20260502235234 16 0.0 0.0 0.00 0.00 0.00 87 1050.8
20260502233658 17 0.0 0.0 0.00 0.00 0.00 86 1051.0
20260502232122 17 0.0 0.0 0.00 0.00 0.00 86 1051.2
20260502230547 17 0.0 0.0 0.00 0.00 0.00 87 1051.1
20260502225011 17 0.0 0.0 0.00 0.00 0.00 87 1051.1
20260502223435 17 0.0 0.0 0.00 0.00 0.00 87 1051.0
20260502221859 17 0.0 0.0 0.00 0.00 0.00 87 1051.1
20260502220323 17 0.0 0.0 0.00 0.00 0.00 87 1051.1
20260502214747 17 0.0 0.0 0.00 0.00 0.00 87 1051.0
20260502213211 17 0.0 0.0 0.00 0.00 0.00 87 1051.0
20260502211635 17 0.0 0.0 0.00 0.00 0.00 87 1050.9
20260502210059 17 0.0 0.0 0.00 0.00 0.00 85 1050.8
20260502204523 17 0.0 0.0 0.00 0.00 0.00 85 1050.7
20260502202947 18 0.0 0.0 0.00 0.00 0.00 83 1050.5
20260502201411 18 0.0 0.0 0.00 0.00 0.00 82 1050.4
20260502195835 18 0.0 0.0 0.00 0.00 0.00 82 1050.4
20260502194259 18 0.0 0.0 0.00 0.00 0.00 80 1050.1
20260502192723 18 0.0 0.0 0.00 0.00 0.00 79 1050.0
20260502191147 20 0.0 0.0 0.00 0.00 0.00 77 1049.9